Torna al catalogo

SDA_1677

AttivoMilitarePO
NORAD 65987·PAYLOAD·🇺🇸 United States

Lanciato Oct 15, 2025 da Vandenberg Space Force Base

Loading…

Prossimi Passaggi (prossime 24 ore)

TLE

AggiornatoSource: Space-Track

Epoca: Sep 14, 2026, 08:28 UTC

1 65987U 25230P   26257.35303572  .00000196  00000-0  18333-3 0  9994
2 65987  81.2995 130.6900 0000602  15.6234 344.4937 13.78090123 46041

Traccia SDA_1677 in tempo reale con AllMySat

Download on the App Store